#timestamp,LO_Frequency,Hit 
1500062415.2,286047001.6,N
1500062435.9,286047004.3,N
1500062455.7,286047002.6,N
1500062475.6,286047001.3,N
1500062495.4,286047004.3,N
1500062515.2,286047004.0,N
1500062535.1,286047004.4,N
1500062536.0,286047004.4,N
1500062555.8,286047004.3,N
1500062575.6,286047003.6,N
1500062595.5,286047003.0,N
1500062615.3,286047003.3,N
1500062635.1,286047005.3,N
1500062655.8,286047007.5,N
1500062675.7,286047006.0,N
1500062695.5,286047005.0,N
1500062715.3,286047005.6,N
1500062735.2,286047005.5,N
1500062755.9,286047003.7,N
1500062775.7,286047005.3,N
1500062795.6,286047006.9,N
1500062815.4,286047004.9,N
1500062835.2,286047007.5,N
1500062855.1,286047007.1,N
1500062856.0,286047007.1,N
1500062875.8,286047004.5,N
1500062895.6,286047007.5,N
1500062915.5,286047004.5,N
1500062935.3,286047004.7,N
1500062955.1,286047004.9,N
1500062975.9,286047007.5,N
1500062995.7,286047007.1,N
1500063015.5,286047006.2,N
1500063035.3,286047007.0,N
1500063055.2,286047007.2,N
1500063075.0,286047006.8,N
1500063075.9,286047006.8,N
1500063095.7,286047004.9,N
1500063115.6,286047004.6,N
1500063135.4,286047009.2,N
1500063155.2,286047006.4,N
1500063175.1,286047006.2,N
1500063176.0,286047006.2,N
1500063195.8,286047008.8,N
1500063215.6,286047007.8,N
1500063235.5,286047010.7,N
1500063255.3,286047010.4,N
1500063275.1,286047010.2,N
1500063295.9,286047008.2,N
1500063315.7,286047007.9,N
1500063335.5,286047010.7,N
1500063355.4,286047008.4,N
1500063375.2,286047008.1,N
1500063395.0,286047009.7,N
1500063395.9,286047009.7,N
1500063415.7,286047011.3,N
1500063435.6,286047012.1,N
1500063455.4,286047012.0,N
1500063475.2,286047009.7,N
1500063495.1,286047010.1,N
1500063496.0,286047010.1,N
1500063515.8,286047011.0,N
1500063535.6,286047012.2,N
1500063555.5,286047012.1,N
1500063575.3,286047011.1,N
1500063595.1,286047011.3,N
1500063615.9,286047014.2,N
1500063635.7,286047015.1,N
1500063655.5,286047013.2,N
1500063675.4,286047015.6,N
1500063695.2,286047015.5,N
1500063715.0,286047010.9,N
1500063715.9,286047010.9,N
1500063735.8,286047010.9,N
1500063755.6,286047015.3,N
1500063775.4,286047012.5,N
1500063795.2,286047015.4,N
1500063815.1,286047015.0,N
1500063816.0,286047015.0,N
1500063835.8,286047015.1,N
1500063855.6,286047015.3,N
1500063875.5,286047013.6,N
1500063895.3,286047015.3,N
1500063915.1,286047014.8,N
1500063935.9,286047013.0,N
1500063955.7,286047014.6,N
1500063975.5,286047015.7,N
1500063995.4,286047015.4,N
1500064015.2,286047012.5,N
1500064035.0,286047012.8,N
1500064035.9,286047012.8,N
1500064055.8,286047015.3,N
1500064075.6,286047014.4,N
1500064095.4,286047016.3,N
1500064115.3,286047018.2,N
1500064135.1,286047015.7,N
1500064136.0,286047015.7,N
1500064155.8,286047020.3,N
1500064175.7,286047020.1,N
1500064195.5,286047021.6,N
1500064215.3,286047021.4,N
1500064235.1,286047021.1,N
1500064255.9,286047019.7,N
1500064275.7,286047023.6,N
1500064295.5,286047020.9,N
1500064315.4,286047020.9,N
1500064335.2,286047023.2,N
1500064355.0,286047021.1,N
1500064355.9,286047021.1,N
1500064375.8,286047020.3,N
1500064395.6,286047021.7,N
1500064415.4,286047022.3,N
1500064435.3,286047023.4,N
1500064455.1,286047021.8,N
1500064456.0,286047021.8,N
1500064475.8,286047023.3,N
1500064495.7,286047024.8,N
1500064515.5,286047024.9,N
1500064535.3,286047026.0,N
1500064555.2,286047027.6,N
1500064575.9,286047029.7,N
1500064595.7,286047028.5,N
1500064615.6,286047030.3,N
1500064635.4,286047031.2,N
1500064655.2,286047031.1,N
1500064675.0,286047030.7,N
1500064676.0,286047030.7,N
1500064695.8,286047030.4,N
1500064715.6,286047032.9,N
1500064735.4,286047032.3,N
1500064755.3,286047032.0,N
1500064775.1,286047029.9,N
1500064795.8,286047029.4,N
1500064815.7,286047028.8,N
1500064835.5,286047032.7,N
1500064855.3,286047029.0,N
1500064875.2,286047031.0,N
1500064895.9,286047032.0,N
1500064915.7,286047034.4,N
1500064935.6,286047035.1,N
1500064955.4,286047037.7,N
1500064975.2,286047039.1,N
1500064995.0,286047038.3,N
1500064996.0,286047038.3,N
1500065015.8,286047039.0,N
1500065035.6,286047037.7,N
1500065055.4,286047037.6,N
1500065075.3,286047039.4,N
1500065095.1,286047038.9,N
1500065115.8,286047044.7,N
1500065135.8,286047056.7,N
1500065155.6,286047063.6,N
1500065175.5,286047062.8,N
1500065195.3,286047068.1,N
1500065215.1,286047064.3,N
1500065235.8,286047063.4,N
1500065255.7,286047062.3,N
1500065275.5,286047069.2,N
1500065295.3,286047074.2,N
1500065315.2,286047070.3,N
1500065335.0,286047068.9,N
1500065335.9,286047068.9,N
1500065355.7,286047063.2,N
1500065375.6,286047058.7,N
1500065395.4,286047051.7,N
1500065415.2,286047051.0,N
1500065435.1,286047052.8,N
1500065436.0,286047052.8,N
1500065455.8,286047058.8,N
1500065475.6,286047057.9,N
1500065495.5,286047058.3,N
1500065515.3,286047055.3,N
1500065535.1,286047054.5,N
1500065555.9,286047056.5,N
1500065575.7,286047053.4,N
1500065595.5,286047055.0,N
1500065615.4,286047055.9,N
1500065635.2,286047055.7,N
1500065655.0,286047053.0,N
1500065655.9,286047053.0,N
1500065675.8,286047055.7,N
1500065695.6,286047058.2,N
1500065715.4,286047057.1,N
1500065735.3,286047053.6,N
1500065755.1,286047052.9,N
1500065756.0,286047052.9,N
1500065775.8,286047054.7,N
1500065795.6,286047057.1,N
1500065815.5,286047054.2,N
1500065835.3,286047058.3,N
1500065855.1,286047056.1,N
1500065875.9,286047054.8,N
1500065895.7,286047054.0,N
1500065915.5,286047051.5,N
1500065935.4,286047053.5,N
1500065955.2,286047054.9,N
1500065975.0,286047051.4,N
1500065975.9,286047051.4,N
1500065995.8,286047053.4,N
